This demonstration page uses our WeatherBlox Daily Observations layout. Learn more.

Left ArrowRight Arrow

34.74481, -87.66753

Hourly Observations for May 8, 2021

Temp ( °F °C ) Dew Point ( °F °C ) Humidity (%) Winds ( mph kmh ) Pressure ( in mb ) Visibility ( mi km ) Precip ( " mm )
12:53 am 00:53 Mostly Cloudy 54 12.2 47 8.3 77 77 Calm 30.07 1018 10 16 0.00 0.00
1:53 am 01:53 Cloudy 55 12.8 48 8.9 77 77 Calm 30.06 1018 10 16 0.00 0.00
2:53 am 02:53 Cloudy 57 13.9 50 10 78 78 Calm 30.07 1018 10 16 0.00 0.00
3:53 am 03:53 Cloudy 58 14.4 47 8.3 67 67 S 5 7 30.06 1018 10 16 0.00 0.00
4:53 am 04:53 Cloudy 58 14.4 48 8.9 70 70 Calm 30.06 1018 10 16 0.00 0.00
5:53 am 05:53 Cloudy 58 14.4 47 8.3 67 67 W 3 6 30.08 1019 10 16 0.00 0.00
6:53 am 06:53 Cloudy 59 15 47 8.3 64 64 SW 3 6 30.09 1019 10 16 0.00 0.00
7:53 am 07:53 Cloudy 59 15 48 8.9 67 67 S 3 6 30.11 1020 10 16 0.00 0.00
8:53 am 08:53 Cloudy 60 15.6 48 8.9 65 65 SSE 3 6 30.11 1020 10 16 0.00 0.00
9:53 am 09:53 Cloudy 62 16.7 49 9.4 62 62 Calm 30.15 1021 10 16 0.00 0.00
10:53 am 10:53 Cloudy with Light Rain 60 15.6 49 9.4 67 67 W 6 9 30.17 1022 10 16 0.03 0.76
11:53 am 11:53 Cloudy 63 17.2 51 10.6 65 65 Calm 30.14 1021 10 16 0.00 0.00
12:53 pm 12:53 Cloudy 64 17.8 50 10 60 60 SSE 3 6 30.11 1020 10 16 0.00 0.00
1:53 pm 13:53 Sunny 69 20.6 51 10.6 53 53 SE 7 11 30.08 1019 10 16 0.00 0.00
2:53 pm 14:53 Sunny 70 21.1 50 10 49 49 SE 6 9 30.06 1018 10 16 0.00 0.00
3:53 pm 15:53 Sunny 73 22.8 50 10 44 44 SSE 8 13 30.03 1017 10 16 0.00 0.00
4:53 pm 16:53 Sunny 74 23.3 51 10.6 45 45 ESE 5 7 30.01 1016 10 16 0.00 0.00
5:53 pm 17:53 Sunny 76 24.4 50 10 40 40 S 7 11 29.98 1015 10 16 0.00 0.00
6:53 pm 18:53 Sunny 73 22.8 47 8.3 40 40 S 7 11 29.96 1015 10 16 0.00 0.00
7:53 pm 19:53 Clear 67 19.4 49 9.4 53 53 SSE 7 11 29.96 1014 10 16 0.00 0.00
8:53 pm 20:53 Clear 65 18.3 49 9.4 56 56 SE 7 11 29.96 1014 10 16 0.00 0.00
9:53 pm 21:53 Clear 64 17.8 50 10 60 60 SE 6 9 29.95 1014 10 16 0.00 0.00
10:53 pm 22:53 Clear 68 20 49 9.4 51 51 S 9 15 29.94 1014 10 16 0.00 0.00
11:53 pm 23:53 Clear 68 20 49 9.4 51 51 S 10 17 29.93 1014 10 16 0.00 0.00

Powered by AerisWeather